EW6262 Weather Reports


time (UTC)temp
F
wind
direction
speed
knots
gust
knots
rain 1hr
in
rain 24hr
in
rain mn
in
humidity
%
barometer
mb
20260505091531 46 15 0.0 7.8 0.00 0.59 0.00 76 1008.3
20260505090039 45 12 0.0 2.6 0.00 0.59 0.00 78 1007.9
20260505084526 45 16 0.0 7.0 0.00 0.59 0.00 79 1007.8
20260505083026 44 15 0.0 0.9 0.00 0.59 0.00 78 1007.6
20260505081522 45 17 0.0 0.9 0.00 0.59 0.00 78 1007.5
20260505080019 45 16 0.0 3.5 0.00 0.60 0.00 77 1007.2
20260505074517 45 17 0.0 3.5 0.00 0.60 0.00 77 1007.2
20260505073028 45 15 0.0 0.9 0.00 0.60 0.00 77 1006.9
20260505071518 46 17 0.0 7.8 0.00 0.60 0.00 76 1006.6
20260505070010 45 15 0.0 7.8 0.00 0.66 0.00 74 1006.4
20260505064523 46 15 0.0 10.4 0.00 0.66 0.00 74 1005.9
20260505063005 46 16 0.0 8.7 0.00 0.66 0.00 73 1005.6
20260505061501 47 15 0.0 5.2 0.00 0.66 0.00 74 1005.3
20260505060103 47 17 0.0 7.8 0.00 0.66 0.00 74 1005.1
20260505054625 47 17 0.0 4.3 0.00 0.66 0.00 74 1005.0
20260505053111 47 16 0.0 4.3 0.00 0.66 0.00 74 1004.8
20260505051554 48 15 0.9 13.0 0.00 0.66 0.00 75 1004.6
20260505041555 49 17 1.7 15.6 0.00 0.73 0.00 75 1004.3
20260505040044 49 18 0.9 14.8 0.00 0.90 0.00 74 1004.0
20260505034542 49 14 1.7 13.9 0.00 0.90 0.00 74 1003.8
20260505033042 49 16 0.0 4.3 0.00 0.90 0.00 73 1003.6
20260505031551 49 19 0.9 13.9 0.00 0.90 0.00 72 1003.5
20260505030036 49 13 0.0 3.5 0.00 1.12 0.90 71 1003.3
20260505024540 48 13 0.0 2.6 0.00 1.12 0.90 70 1003.1
20260505023034 49 13 0.0 2.6 0.00 1.12 0.90 69 1002.8
20260505021533 49 15 0.0 0.9 0.00 1.12 0.90 67 1002.9
20260505020033 49 13 0.0 2.6 0.00 1.33 0.90 66 1002.6
20260505014535 49 13 0.0 7.8 0.00 1.33 0.90 65 1002.4
20260505013027 49 15 0.0 2.6 0.00 1.33 0.90 64 1002.3
20260505011532 48 15 0.0 7.0 0.00 1.33 0.90 64 1002.1
20260505010025 48 13 0.0 3.5 0.00 1.51 0.90 65 1002.0
20260505004541 47 13 0.0 2.6 0.00 1.51 0.90 67 1001.7
20260505003023 47 43 0.0 0.9 0.00 1.51 0.90 63 1001.9
20260505001522 47 12 0.0 3.5 0.00 1.51 0.90 61 1001.7
20260505000034 48 12 0.0 1.7 0.00 1.64 0.90 60 1001.5
20260504234517 48 13 0.0 3.5 0.00 1.64 0.90 60 1001.2
20260504233017 49 13 0.0 7.8 0.00 1.64 0.90 59 1000.8
20260504231515 50 15 0.0 12.2 0.00 1.64 0.90 57 1000.5
20260504230012 51 13 0.0 22.6 0.00 1.74 0.90 57 1000.5
20260504224512 51 13 1.7 13.9 0.00 1.74 0.90 57 1000.4
20260504223011 51 14 1.7 14.8 0.00 1.74 0.90 57 1000.1
20260504221510 51 16 0.9 17.4 0.00 1.74 0.90 58 999.9
20260504220011 51 17 5.2 19.1 0.00 1.81 0.90 58 999.7
20260504214505 51 17 0.9 20.0 0.00 1.81 0.90 58 999.5
20260504213004 51 17 1.7 22.6 0.00 1.81 0.90 58 999.5
20260504211502 52 17 4.3 20.9 0.00 1.81 0.90 58 999.1
20260504210100 51 15 2.6 20.9 0.00 1.89 0.90 60 998.8
20260504204602 50 17 4.3 21.7 0.00 1.89 0.90 61 998.7
20260504203102 49 17 0.9 28.7 0.00 1.89 0.90 63 998.8
20260504201552 49 16 4.3 21.7 0.00 1.89 0.90 65 998.2
20260504200049 49 16 6.1 29.5 0.00 1.90 0.90 66 998.0
20260504194548 49 16 1.7 23.5 0.00 1.90 0.90 69 997.8
20260504193044 48 15 7.8 22.6 0.00 1.90 0.90 70 997.4
20260504191542 48 16 2.6 30.4 0.00 1.90 0.90 74 997.0
20260504190038 47 15 2.6 25.2 0.00 1.90 0.90 77 996.7
20260504184535 47 16 1.7 21.7 0.00 1.90 0.90 77 996.5
20260504183032 46 17 6.1 27.8 0.00 1.90 0.90 80 996.2
20260504181532 45 15 3.5 27.8 0.00 1.90 0.90 83 996.2
20260504180026 44 15 7.8 28.7 0.00 1.90 0.90 85 996.2
20260504174525 44 17 0.9 21.7 0.02 1.90 0.90 87 995.6
20260504173022 44 15 2.6 22.6 0.06 1.90 0.90 89 995.1
20260504171519 43 15 4.3 29.5 0.10 1.90 0.90 89 994.3